| time (UTC) | temp C | wind direction | speed KPH | gust KPH | rain 1hr cm | rain 24hr cm | rain mn cm | humidity % | barometer mb |
| 20260903152550 | 25 | 69 | 1.6 | 4.8 | 0.00 | 0.00 | 0.00 | 53 | 1020.7 |
| 20260903151550 | 25 | 6 | 1.6 | 8.0 | 0.00 | 0.00 | 0.00 | 52 | 1020.7 |
| 20260903150551 | 25 | 176 | 3.2 | 9.7 | 0.00 | 0.00 | 0.00 | 50 | 1020.7 |
| 20260903145611 | 25 | 60 | 3.2 | 8.0 | 0.00 | 0.00 | 0.00 | 50 | 1020.7 |
| 20260903144551 | 25 | 196 | 3.2 | 12.9 | 0.00 | 0.00 | 0.00 | 51 | 1020.8 |
| 20260903143552 | 25 | 328 | 3.2 | 14.5 | 0.00 | 0.00 | 0.00 | 50 | 1020.9 |
| 20260903142552 | 25 | 309 | 3.2 | 14.5 | 0.00 | 0.00 | 0.00 | 51 | 1021.0 |
| 20260903141556 | 25 | 47 | 3.2 | 12.9 | 0.00 | 0.00 | 0.00 | 51 | 1021.0 |
| 20260903140553 | 25 | 51 | 1.6 | 4.8 | 0.00 | 0.00 | 0.00 | 52 | 1021.0 |
| 20260903135553 | 25 | 8 | 3.2 | 16.1 | 0.00 | 0.00 | 0.00 | 51 | 1021.0 |
| 20260903134556 | 26 | 329 | 3.2 | 11.3 | 0.00 | 0.00 | 0.00 | 50 | 1021.0 |
| 20260903133554 | 26 | 39 | 3.2 | 12.9 | 0.00 | 0.00 | 0.00 | 51 | 1020.9 |
| 20260903132635 | 25 | 352 | 3.2 | 8.0 | 0.00 | 0.00 | 0.00 | 53 | 1021.1 |
| 20260903131615 | 25 | 95 | 1.6 | 8.0 | 0.00 | 0.00 | 0.00 | 54 | 1021.0 |
| 20260903130616 | 25 | 290 | 3.2 | 14.5 | 0.00 | 0.00 | 0.00 | 52 | 1021.2 |
| 20260903125556 | 25 | 189 | 3.2 | 9.7 | 0.00 | 0.00 | 0.00 | 52 | 1021.2 |
| 20260903124557 | 25 | 39 | 3.2 | 11.3 | 0.00 | 0.00 | 0.00 | 53 | 1021.2 |
| 20260903123557 | 25 | 40 | 4.8 | 11.3 | 0.00 | 0.00 | 0.00 | 53 | 1021.4 |
| 20260903122617 | 25 | 237 | 3.2 | 11.3 | 0.00 | 0.00 | 0.00 | 52 | 1021.6 |
| 20260903121558 | 25 | 114 | 3.2 | 9.7 | 0.00 | 0.00 | 0.00 | 53 | 1021.6 |
| 20260903120558 | 25 | 140 | 3.2 | 12.9 | 0.00 | 0.00 | 0.00 | 53 | 1021.4 |
| 20260903115559 | 25 | 351 | 3.2 | 12.9 | 0.00 | 0.00 | 0.00 | 52 | 1021.5 |
| 20260903114559 | 25 | 46 | 3.2 | 9.7 | 0.00 | 0.00 | 0.00 | 52 | 1021.5 |
| 20260903113559 | 25 | 353 | 4.8 | 17.7 | 0.00 | 0.00 | 0.00 | 52 | 1021.5 |
| 20260903112642 | 25 | 332 | 4.8 | 16.1 | 0.00 | 0.00 | 0.00 | 53 | 1021.5 |
| 20260903111600 | 25 | 210 | 4.8 | 17.7 | 0.00 | 0.00 | 0.00 | 53 | 1021.5 |
| 20260903110600 | 25 | 118 | 3.2 | 12.9 | 0.00 | 0.00 | 0.00 | 54 | 1021.6 |
| 20260903105601 | 25 | 67 | 4.8 | 16.1 | 0.00 | 0.00 | 0.00 | 54 | 1021.8 |
| 20260903104602 | 25 | 229 | 4.8 | 11.3 | 0.00 | 0.00 | 0.00 | 56 | 1021.8 |
| 20260903103623 | 24 | 313 | 4.8 | 12.9 | 0.00 | 0.00 | 0.00 | 57 | 1021.6 |
| 20260903102602 | 25 | 174 | 4.8 | 12.9 | 0.00 | 0.00 | 0.00 | 54 | 1021.7 |
| 20260903101603 | 25 | 186 | 3.2 | 14.5 | 0.00 | 0.00 | 0.00 | 56 | 1021.8 |
| 20260903100603 | 24 | 155 | 3.2 | 8.0 | 0.00 | 0.00 | 0.00 | 57 | 1022.1 |
| 20260903095605 | 25 | 71 | 3.2 | 12.9 | 0.00 | 0.00 | 0.00 | 57 | 1022.1 |
| 20260903094604 | 25 | 39 | 1.6 | 4.8 | 0.00 | 0.00 | 0.00 | 57 | 1022.4 |
| 20260903093604 | 24 | 145 | 3.2 | 8.0 | 0.00 | 0.00 | 0.00 | 58 | 1022.4 |
| 20260903092605 | 23 | 56 | 3.2 | 14.5 | 0.00 | 0.00 | 0.00 | 58 | 1022.4 |
| 20260903091605 | 23 | 213 | 4.8 | 12.9 | 0.00 | 0.00 | 0.00 | 58 | 1022.4 |
| 20260903090606 | 23 | 150 | 3.2 | 9.7 | 0.00 | 0.00 | 0.00 | 59 | 1022.3 |
| 20260903085606 | 23 | 282 | 3.2 | 9.7 | 0.00 | 0.00 | 0.00 | 60 | 1022.3 |
| 20260903084606 | 23 | 249 | 4.8 | 9.7 | 0.00 | 0.00 | 0.00 | 59 | 1022.4 |
| 20260903083607 | 23 | 169 | 3.2 | 9.7 | 0.00 | 0.00 | 0.00 | 59 | 1022.3 |
| 20260903082607 | 23 | 68 | 1.6 | 4.8 | 0.00 | 0.00 | 0.00 | 61 | 1022.2 |
| 20260903081608 | 22 | 199 | 3.2 | 8.0 | 0.00 | 0.00 | 0.00 | 63 | 1022.3 |
| 20260903080608 | 22 | 173 | 3.2 | 8.0 | 0.00 | 0.00 | 0.00 | 64 | 1022.2 |
| 20260903075608 | 22 | 140 | 1.6 | 4.8 | 0.00 | 0.00 | 0.00 | 65 | 1022.5 |
| 20260903074537 | 22 | 114 | 1.6 | 4.8 | 0.00 | 0.00 | 0.00 | 67 | 1022.5 |
| 20260903073538 | 21 | 100 | 1.6 | 3.2 | 0.00 | 0.00 | 0.00 | 70 | 1022.7 |
| 20260903072538 | 20 | 102 | 0.0 | 3.2 | 0.00 | 0.00 | 0.00 | 71 | 1022.7 |
| 20260903071618 | 20 | 111 | 1.6 | 3.2 | 0.00 | 0.00 | 0.00 | 72 | 1022.6 |
| 20260903070619 | 20 | 108 | 1.6 | 3.2 | 0.00 | 0.00 | 0.00 | 71 | 1022.7 |
| 20260903065539 | 20 | 109 | 1.6 | 3.2 | 0.00 | 0.00 | 0.00 | 71 | 1022.6 |
| 20260903064540 | 20 | 122 | 0.0 | 3.2 | 0.00 | 0.00 | 0.00 | 70 | 1022.6 |
| 20260903063539 | 20 | 100 | 0.0 | 3.2 | 0.00 | 0.00 | 0.00 | 71 | 1022.4 |
| 20260903062540 | 18 | 91 | 0.0 | 1.6 | 0.00 | 0.00 | 0.00 | 76 | 1022.3 |
| 20260903061540 | 19 | 0.0 | 0.0 | 0.00 | 0.00 | 0.00 | 72 | 1022.4 | |
| 20260903060540 | 16 | 0.0 | 0.0 | 0.00 | 0.00 | 0.00 | 81 | 1022.3 | |
| 20260903055601 | 18 | 0.0 | 0.0 | 0.00 | 0.00 | 0.00 | 76 | 1022.3 | |
| 20260903054541 | 18 | 0.0 | 0.0 | 0.00 | 0.00 | 0.00 | 74 | 1022.2 | |
| 20260903053543 | 16 | 0.0 | 0.0 | 0.00 | 0.00 | 0.00 | 83 | 1022.4 | |
| 20260903052603 | 13 | 0.0 | 0.0 | 0.00 | 0.00 | 0.00 | 91 | 1022.3 | |
| 20260903051544 | 12 | 0.0 | 0.0 | 0.00 | 0.00 | 0.00 | 95 | 1022.2 | |
| 20260903050544 | 12 | 0.0 | 0.0 | 0.00 | 0.00 | 0.00 | 95 | 1022.2 | |
| 20260903045545 | 12 | 0.0 | 0.0 | 0.00 | 0.00 | 0.00 | 95 | 1022.2 | |
| 20260903044544 | 12 | 0.0 | 0.0 | 0.00 | 0.00 | 0.00 | 95 | 1022.1 | |
| 20260903043545 | 12 | 0.0 | 0.0 | 0.00 | 0.00 | 0.00 | 95 | 1022.0 | |
| 20260903042544 | 12 | 0.0 | 0.0 | 0.00 | 0.00 | 0.00 | 94 | 1021.8 | |
| 20260903041545 | 12 | 0.0 | 0.0 | 0.00 | 0.00 | 0.00 | 93 | 1022.0 | |
| 20260903040545 | 12 | 0.0 | 0.0 | 0.00 | 0.00 | 0.00 | 93 | 1022.1 | |
| 20260903035546 | 13 | 0.0 | 0.0 | 0.00 | 0.00 | 0.00 | 92 | 1021.9 | |
| 20260903034626 | 13 | 0.0 | 0.0 | 0.00 | 0.00 | 0.00 | 91 | 1022.0 | |
| 20260903033546 | 12 | 0.0 | 0.0 | 0.00 | 0.00 | 0.00 | 92 | 1021.9 | |
| 20260903032547 | 13 | 0.0 | 0.0 | 0.00 | 0.00 | 0.00 | 92 | 1021.9 | |
| 20260903031548 | 13 | 0.0 | 0.0 | 0.00 | 0.00 | 0.00 | 91 | 1021.9 | |
| 20260903030548 | 13 | 0.0 | 0.0 | 0.00 | 0.00 | 0.00 | 90 | 1021.8 | |
| 20260903025548 | 13 | 0.0 | 0.0 | 0.00 | 0.00 | 0.00 | 89 | 1022.0 | |
| 20260903024549 | 14 | 0.0 | 0.0 | 0.00 | 0.00 | 0.00 | 86 | 1022.0 | |
| 20260903023549 | 15 | 0.0 | 0.0 | 0.00 | 0.00 | 0.00 | 85 | 1022.0 | |
| 20260903022610 | 15 | 0.0 | 0.0 | 0.00 | 0.00 | 0.00 | 84 | 1022.0 | |
| 20260903021610 | 15 | 0.0 | 0.0 | 0.00 | 0.00 | 0.00 | 82 | 1021.9 | |
| 20260903020630 | 15 | 0.0 | 0.0 | 0.00 | 0.00 | 0.00 | 81 | 1021.9 | |
| 20260903015550 | 16 | 0.0 | 0.0 | 0.00 | 0.00 | 0.00 | 80 | 1021.9 | |
| 20260903014552 | 16 | 0.0 | 0.0 | 0.00 | 0.00 | 0.00 | 80 | 1021.8 | |
| 20260903013552 | 16 | 0.0 | 0.0 | 0.00 | 0.00 | 0.00 | 81 | 1021.9 | |
| 20260903012552 | 16 | 0.0 | 0.0 | 0.00 | 0.00 | 0.00 | 81 | 1021.8 | |
| 20260903011552 | 16 | 0.0 | 0.0 | 0.00 | 0.00 | 0.00 | 81 | 1021.7 | |
| 20260903010553 | 16 | 0.0 | 1.6 | 0.00 | 0.00 | 0.00 | 81 | 1021.7 | |
| 20260903005553 | 16 | 0.0 | 0.0 | 0.00 | 0.00 | 0.00 | 80 | 1021.7 | |
| 20260903004555 | 16 | 0.0 | 0.0 | 0.00 | 0.00 | 0.00 | 80 | 1021.8 | |
| 20260903003554 | 16 | 0.0 | 0.0 | 0.00 | 0.00 | 0.00 | 80 | 1021.6 | |
| 20260903002554 | 16 | 0.0 | 1.6 | 0.00 | 0.00 | 0.00 | 79 | 1021.6 | |
| 20260903001615 | 16 | 57 | 0.0 | 1.6 | 0.00 | 0.00 | 0.00 | 79 | 1021.5 |
| 20260903000556 | 16 | 0.0 | 1.6 | 0.00 | 0.00 | 0.00 | 79 | 1021.6 | |
| 20260902235556 | 16 | 77 | 0.0 | 1.6 | 0.00 | 0.00 | 0.00 | 78 | 1021.5 |
| 20260902234556 | 16 | 105 | 0.0 | 1.6 | 0.00 | 0.00 | 0.00 | 77 | 1021.5 |
| 20260902233558 | 16 | 80 | 0.0 | 1.6 | 0.00 | 0.00 | 0.00 | 77 | 1021.5 |
| 20260902232637 | 16 | 73 | 0.0 | 1.6 | 0.00 | 0.00 | 0.00 | 76 | 1021.5 |
| 20260902231557 | 17 | 0.0 | 0.0 | 0.00 | 0.00 | 0.00 | 75 | 1021.5 | |
| 20260902230558 | 17 | 58 | 0.0 | 1.6 | 0.00 | 0.00 | 0.00 | 75 | 1021.5 |
| 20260902225559 | 17 | 74 | 0.0 | 3.2 | 0.00 | 0.00 | 0.00 | 74 | 1021.5 |
| 20260902224559 | 17 | 78 | 0.0 | 3.2 | 0.00 | 0.00 | 0.00 | 75 | 1021.4 |
| 20260902223600 | 16 | 0.0 | 1.6 | 0.00 | 0.00 | 0.00 | 76 | 1021.5 | |
| 20260902222559 | 16 | 0.0 | 0.0 | 0.00 | 0.00 | 0.00 | 79 | 1021.5 | |
| 20260902221600 | 15 | 0.0 | 0.0 | 0.00 | 0.00 | 0.00 | 83 | 1021.3 | |
| 20260902220621 | 15 | 0.0 | 0.0 | 0.00 | 0.00 | 0.00 | 87 | 1021.3 | |
| 20260902215600 | 15 | 0.0 | 0.0 | 0.00 | 0.00 | 0.00 | 88 | 1021.1 | |
| 20260902214621 | 15 | 0.0 | 0.0 | 0.00 | 0.00 | 0.00 | 87 | 1021.0 | |
| 20260902213601 | 15 | 0.0 | 0.0 | 0.00 | 0.00 | 0.00 | 88 | 1021.0 | |
| 20260902212602 | 15 | 0.0 | 0.0 | 0.00 | 0.00 | 0.00 | 86 | 1021.1 | |
| 20260902211603 | 15 | 0.0 | 0.0 | 0.00 | 0.00 | 0.00 | 86 | 1021.0 | |
| 20260902210603 | 15 | 0.0 | 1.6 | 0.00 | 0.00 | 0.00 | 86 | 1021.0 | |
| 20260902205603 | 15 | 0.0 | 0.0 | 0.00 | 0.00 | 0.00 | 85 | 1020.9 | |
| 20260902204604 | 16 | 0.0 | 0.0 | 0.00 | 0.00 | 0.00 | 84 | 1020.9 | |
| 20260902203537 | 16 | 0.0 | 1.6 | 0.00 | 0.00 | 0.00 | 82 | 1021.0 | |
| 20260902202536 | 16 | 0.0 | 0.0 | 0.00 | 0.00 | 0.00 | 80 | 1020.8 | |
| 20260902201557 | 17 | 143 | 1.6 | 3.2 | 0.00 | 0.00 | 0.00 | 79 | 1020.8 |
| 20260902200537 | 17 | 0.0 | 0.0 | 0.00 | 0.00 | 0.00 | 77 | 1020.8 | |
| 20260902195538 | 17 | 0.0 | 0.0 | 0.00 | 0.00 | 0.00 | 78 | 1020.7 | |
| 20260902194538 | 17 | 75 | 0.0 | 1.6 | 0.00 | 0.00 | 0.00 | 76 | 1020.7 |
| 20260902193538 | 18 | 0.0 | 0.0 | 0.00 | 0.00 | 0.00 | 75 | 1020.7 | |
| 20260902192539 | 18 | 0.0 | 0.0 | 0.00 | 0.00 | 0.00 | 71 | 1020.7 | |
| 20260902191539 | 19 | 0.0 | 1.6 | 0.00 | 0.00 | 0.00 | 66 | 1020.7 | |
| 20260902190540 | 18 | 67 | 0.0 | 1.6 | 0.00 | 0.00 | 0.00 | 67 | 1020.7 |
| 20260902185540 | 18 | 0.0 | 0.0 | 0.00 | 0.00 | 0.00 | 74 | 1020.6 | |
| 20260902184541 | 18 | 0.0 | 0.0 | 0.00 | 0.00 | 0.00 | 78 | 1020.4 | |
| 20260902183542 | 18 | 0.0 | 0.0 | 0.00 | 0.00 | 0.00 | 76 | 1020.2 | |
| 20260902182541 | 18 | 53 | 0.0 | 1.6 | 0.00 | 0.00 | 0.00 | 76 | 1020.2 |
| 20260902181542 | 19 | 69 | 0.0 | 1.6 | 0.00 | 0.00 | 0.00 | 75 | 1020.2 |
| 20260902180543 | 20 | 0.0 | 1.6 | 0.00 | 0.00 | 0.00 | 74 | 1019.9 | |
| 20260902175542 | 21 | 0.0 | 0.0 | 0.00 | 0.00 | 0.00 | 73 | 1019.8 | |
| 20260902174543 | 21 | 0.0 | 0.0 | 0.00 | 0.00 | 0.00 | 70 | 1019.7 | |
| 20260902173543 | 22 | 99 | 0.0 | 1.6 | 0.00 | 0.00 | 0.00 | 66 | 1019.6 |
| 20260902172544 | 22 | 125 | 0.0 | 3.2 | 0.00 | 0.00 | 0.00 | 61 | 1019.6 |
| 20260902171545 | 23 | 0.0 | 0.0 | 0.00 | 0.00 | 0.00 | 61 | 1019.5 | |
| 20260902170545 | 23 | 0.0 | 0.0 | 0.00 | 0.00 | 0.00 | 60 | 1019.6 | |
| 20260902165545 | 23 | 63 | 0.0 | 1.6 | 0.00 | 0.00 | 0.00 | 59 | 1019.6 |
| 20260902164545 | 23 | 55 | 0.0 | 1.6 | 0.00 | 0.00 | 0.00 | 57 | 1019.5 |
| 20260902163606 | 23 | 60 | 0.0 | 1.6 | 0.00 | 0.00 | 0.00 | 54 | 1019.5 |
| 20260902162547 | 24 | 70 | 0.0 | 1.6 | 0.00 | 0.00 | 0.00 | 54 | 1019.3 |
| 20260902161546 | 24 | 49 | 0.0 | 1.6 | 0.00 | 0.00 | 0.00 | 51 | 1019.4 |
| 20260902160627 | 24 | 51 | 0.0 | 4.8 | 0.00 | 0.00 | 0.00 | 50 | 1019.3 |
| 20260902155547 | 25 | 58 | 1.6 | 4.8 | 0.00 | 0.00 | 0.00 | 50 | 1019.4 |
| 20260902154548 | 25 | 41 | 1.6 | 4.8 | 0.00 | 0.00 | 0.00 | 49 | 1019.5 |
| 20260902153550 | 25 | 170 | 1.6 | 8.0 | 0.00 | 0.00 | 0.00 | 46 | 1019.4 |